This is the latest recevied weather packets stored in our database for station/object DL1MMS-10. If no packets are shown the sender has not sent any weather packets the latest 10 day(s).
| Time | Temp. | Humidity | Pressure | Rain* | Wind** | Luminosity | Snow |
|---|---|---|---|---|---|---|---|
| 1778079566 | 26.11° C | 46% | 1007.3 hPa | 0 mm | - | - | - |
| 1778079265 | 26.67° C | 48% | 1007.4 hPa | 0 mm | - | - | - |
| 1778078965 | 25° C | 52% | 1007.4 hPa | 0 mm | - | - | - |
| 1778078665 | 22.78° C | 58% | 1007.2 hPa | 0 mm | - | - | - |
| 1778078364 | 20.56° C | 62% | 1007.3 hPa | 0 mm | - | - | - |
| 1778078064 | 18.89° C | 62% | 1007.5 hPa | 0 mm | - | - | - |
| 1778077764 | 18.89° C | 62% | 1007.5 hPa | 0 mm | - | - | - |
| 1778077463 | 18.89° C | 62% | 1007.3 hPa | 0 mm | - | - | - |
| 1778077163 | 19.44° C | 63% | 1007.3 hPa | 0 mm | - | - | - |
| 1778076863 | 18.89° C | 62% | 1007.3 hPa | 0 mm | - | - | - |
| 1778076563 | 18.89° C | 64% | 1007.2 hPa | 0 mm | - | - | - |
| 1778076262 | 18.89° C | 69% | 1007.2 hPa | 0 mm | - | - | - |
| 1778075962 | 17.22° C | 73% | 1007.3 hPa | 0 mm | - | - | - |
| 1778075662 | 16.67° C | 72% | 1007.4 hPa | 0 mm | - | - | - |
| 1778075361 | 16.11° C | 77% | 1007.6 hPa | 0 mm | - | - | - |
| 1778075061 | 14.44° C | 82% | 1007.6 hPa | 0 mm | - | - | - |
| 1778074761 | 12.78° C | 82% | 1007.5 hPa | 0 mm | - | - | - |
| 1778074461 | 12.22° C | 82% | 1007.4 hPa | 0 mm | - | - | - |
| 1778074160 | 11.11° C | 80% | 1007.6 hPa | 0 mm | - | - | - |
| 1778073860 | 11.11° C | 78% | 1008 hPa | 0 mm | - | - | - |
| 1778073560 | 11.11° C | 76% | 1008.1 hPa | 0 mm | - | - | - |
| 1778073260 | 11.67° C | 75% | 1008.1 hPa | 0 mm | - | - | - |
| 1778072959 | 12.78° C | 73% | 1008.2 hPa | 0 mm | - | - | - |
| 1778072659 | 13.89° C | 67% | 1008.1 hPa | 0 mm | - | - | - |
| 1778072359 | 15° C | 62% | 1008 hPa | 0 mm | - | - | - |
* Rain latest hour (hover to see other rain measurements)
** Current wind speed in m/s (hover to see current wind gust speed)